Lexington Weather

Lexington, Massachusetts, USA

34°F
4/16/2021 10:39am 
  • Lexington Conditions: Snow, Fog, Overcast
  • Temperature: 34.0°F / 1.1°C 
  • Dew Point: 32.7°F 
  • Relative Humidity: 95
  • Wind: Calm, 10-min avg: Calm, gust: None
  • Barometer: 29.48 in Steady
  • Visibility: ½ mile
  • Snow Today: 1.3 in
  •   

Regional Weather Roundup
for Boston / Norton, MA

        
000
ASUS41 KBOX 150904
RWRBOX

REGIONAL WEATHER ROUNDUP
NATIONAL WEATHER SERVICE BOSTON/NORTON MA
500 AM EDT THU APR 15 2021

NOTE:  "FAIR" INDICATES FEW OR NO CLOUDS BELOW 12,000 FEET WITH NO 
SIGNIFICANT WEATHER AND/OR OBSTRUCTIONS TO VISIBILITY.

MAZALL-151000-
EASTERN MASSACHUSETTS
  
CITY           SKY/WX    TMP DP  RH WIND       PRES   REMARKS
BOSTON         MOCLDY    46  39  76 SE8       29.90F                  
BEVERLY        NOT AVBL                                               
LAWRENCE       CLOUDY    45  40  82 CALM      29.91F                  
BEDFORD        MOCLDY    44  38  79 CALM      29.88F                  
BLUE HILL        N/A     43  38  82 SE9       29.86F                  
NORWOOD        CLOUDY    46  40  79 CALM      29.89F                  
MARSHFIELD     CLOUDY    45  39  81 S3        29.90F                  
PLYMOUTH       CLOUDY    42  37  82 SE3       29.89F                  
TAUNTON          N/A    N/A N/A N/A MISG      29.89F                  
NEW BEDFORD      N/A     45  38  76 SE6       29.89F                  
$$

MAZALL-151000-
CAPE COD AND THE ISLANDS
  
CITY           SKY/WX    TMP DP  RH WIND       PRES   REMARKS
FALMOUTH       CLOUDY    43  39  87 SE6       29.90F                  
HYANNIS        CLOUDY    46  39  76 CALM      29.89F                  
CHATHAM        CLOUDY    42  39  89 CALM      29.93S                  
PROVINCETOWN   PTCLDY    41  38  89 CALM      29.92F                  
NANTUCKET      PTCLDY    42  38  85 SE6       29.90F                  
MARTHAS VNYRD  CLOUDY    44  41  89 SE6       29.89F                  
$$
 
MAZALL-151000-
CENTRAL AND WESTERN MASSACHUSETTS
  
CITY           SKY/WX    TMP DP  RH WIND       PRES   REMARKS
WORCESTER      CLOUDY    44  38  79 SE6       29.86F                  
FITCHBURG      CLOUDY    46  39  76 SE5       29.88F                  
ORANGE         CLOUDY    47  40  76 S8        29.86F                  
SPRINGFIELD    CLOUDY    47  41  78 E6        29.83F                  
WESTFIELD      CLOUDY    48  42  80 E5        29.84F                  
NORTH ADAMS    LGT RAIN  51  44  77 E10       29.79S                  
PITTSFIELD     CLOUDY    47  44  90 VRB3      29.77F                  
$$
 
RIZALL-151000-
RHODE ISLAND
  
CITY           SKY/WX    TMP DP  RH WIND       PRES   REMARKS
PROVIDENCE     CLOUDY    46  38  73 SE5       29.89F                  
NEWPORT        CLOUDY    44  39  82 SE7       29.87F                  
BLOCK ISLAND   CLOUDY    44  40  85 SE13      29.87F                  
SMITHFIELD     CLOUDY    44  41  89 SE5       29.88F                  
WESTERLY       CLOUDY    44  40  85 E12       29.86F                  
$$
 
CTZALL-151000-
CONNECTICUT
  
CITY           SKY/WX    TMP DP  RH WIND       PRES   REMARKS
BRADLEY INTL   CLOUDY    48  42  80 E7        29.84F                  
HARTFORD       CLOUDY    49  42  77 CALM      29.83F                  
BRIDGEPORT     LGT RAIN  48  46  93 E13       29.80F                  
DANBURY        CLOUDY    51  46  83 E6        29.80F                  
GROTON         CLOUDY    46  42  86 E15       29.84F                  
NEW HAVEN      CLOUDY    50  46  86 E7        29.81F                  
CHESTER        CLOUDY    46  45  93 E5        29.83F                  
MERIDEN        CLOUDY    49  43  80 E3        29.82F                  
WILLIMANTIC    CLOUDY    46  40  79 VRB5      29.86F                  
OXFORD         LGT RAIN  46  46 100 E6        29.80F FOG              
$$

MEZ002-015-021-024-NHZ003-005-008-011-012-014-VTZ005-008-151000-
NORTHERN NEW ENGLAND
  
CITY           SKY/WX    TMP DP  RH WIND       PRES   REMARKS
PORTLAND ME    CLOUDY    39  38  96 CALM      29.91F                  
BANGOR ME      CLEAR     32  30  92 CALM      29.92F                  
CONCORD NH     CLOUDY    42  38  85 CALM      29.89F                  
MANCHESTER NH  CLOUDY    45  38  76 CALM      29.87F                  
NASHUA NH      MOCLDY    43  41  93 CALM      29.89F                  
PORTSMOUTH NH  MOCLDY    43  39  87 CALM      29.91S                  
JAFFREY NH     CLOUDY    43  38  82 CALM      29.86F                  
KEENE NH       CLOUDY    46  39  76 S6        29.86F                  
BURLINGTON VT  CLOUDY    53  43  68 VRB3      29.76S                  
MT. WASHINGTON PTCLDY    34  28  80 SE10        N/A  WCI  26          
$$

NYZ052-076-151000-
EASTERN NEW YORK
  
CITY           SKY/WX    TMP DP  RH WIND       PRES   REMARKS
ALBANY         CLOUDY    52  45  77 W7        29.75F                  
NEW YORK CITY  CLOUDY    50  46  86 NE9       29.79S                  
$$
 
ANZALL-151000-
MARINE OBSERVATIONS
  
STATION/POSITION TIME  TEMP    WIND        PRES    VSBY  WAVE
                       AIR SEA DIR/SP/G                  HT/PER
                 (UTC) (F)     (DEG/KT/KT) (MB)    (MI)  (FT/S)
BOSTON BUOY      0840   44 45  170/  6/  8 1013.0F
BUZZARDS BAY     0800          120/ 12/ 13 1013.6F
NANTUCKET SOUND  0850      47                N/A           1/11
MASS BAY-STELLWA 0804   45     200/  8/  8 1012.0S  1 7/8  4/11
ISLE OF SHOALS   0800   45     200/  5/  6 1012.4F
S OF BLOCK IS    0826      45                N/A           3/13
$$

......................KEY.........................
  SKY/WX - SKY CONDITION/PRESENT WEATHER
  TMP    - TEMPERATURE IN FAHRENHEIT
  DWPT   - DEWPOINT IN FAHRENHEIT
  RH     - RELATIVE HUMIDITY IN PERCENT
  WIND   - DIRECTION AND SPEED IN MPH
  PRES   - MEAN SEA LEVEL PRESSURE IN INCHES OF HG
  WCI    - WIND CHILL INDEX
  VSB    - VISIBILITY IN MILES
  HX     - HEAT INDEX
  TC     - TEMPERATURE IN CELSIUS
  VRB    - VARIABLE WIND DIRECTION
  N/A    - NOT AVAILABLE
  
      

Other recent Regional Weather Roundups

Fri Apr 16, 10:05am

Fri Apr 16, 9:04am

Fri Apr 16, 8:04am

Fri Apr 16, 7:04am

Fri Apr 16, 6:04am

Fri Apr 16, 5:04am

Fri Apr 16, 4:04am

Fri Apr 16, 3:04am

Fri Apr 16, 2:04am

Fri Apr 16, 1:04am

Fri Apr 16, 12:04am

Thu Apr 15, 11:05pm

Thu Apr 15, 10:04pm

Thu Apr 15, 9:04pm

Thu Apr 15, 8:04pm

Thu Apr 15, 7:05pm

Thu Apr 15, 6:04pm

Thu Apr 15, 5:05pm

Thu Apr 15, 4:04pm

Thu Apr 15, 3:05pm

Thu Apr 15, 2:04pm

Thu Apr 15, 1:05pm

Thu Apr 15, 12:04pm

Thu Apr 15, 11:04am

Thu Apr 15, 10:05am

Thu Apr 15, 9:04am

Thu Apr 15, 8:04am

Thu Apr 15, 7:04am

Thu Apr 15, 6:04am

Thu Apr 15, 4:04am

Thu Apr 15, 3:04am

Thu Apr 15, 2:04am

Thu Apr 15, 1:04am

Thu Apr 15, 12:04am

Wed Apr 14, 11:04pm

Wed Apr 14, 10:04pm

Wed Apr 14, 9:04pm

Wed Apr 14, 8:04pm

Wed Apr 14, 7:04pm

Wed Apr 14, 6:04pm

Wed Apr 14, 5:05pm

Wed Apr 14, 4:04pm

Wed Apr 14, 3:05pm

Wed Apr 14, 2:04pm

Wed Apr 14, 1:05pm

Wed Apr 14, 12:04pm

Wed Apr 14, 11:04am

Wed Apr 14, 10:04am

Wed Apr 14, 9:04am

Wed Apr 14, 8:04am

Wed Apr 14, 7:04am

Wed Apr 14, 6:04am

Wed Apr 14, 5:04am

Wed Apr 14, 4:04am

Wed Apr 14, 3:04am

Wed Apr 14, 2:04am

Wed Apr 14, 1:04am

Wed Apr 14, 12:04am

Tue Apr 13, 11:04pm

Tue Apr 13, 10:05pm

Tue Apr 13, 9:05pm

Tue Apr 13, 8:05pm

Tue Apr 13, 7:04pm

Tue Apr 13, 6:04pm

Tue Apr 13, 5:05pm

Tue Apr 13, 4:04pm

Tue Apr 13, 3:04pm

Tue Apr 13, 2:05pm

Tue Apr 13, 1:04pm

Tue Apr 13, 12:05pm

Tue Apr 13, 11:05am

Tue Apr 13, 10:04am

Tue Apr 13, 9:04am

Tue Apr 13, 8:04am

Tue Apr 13, 7:04am

Tue Apr 13, 6:04am

Tue Apr 13, 5:04am

Tue Apr 13, 4:04am

Tue Apr 13, 3:04am

Tue Apr 13, 2:04am

Tue Apr 13, 1:04am

Tue Apr 13, 12:05am

Mon Apr 12, 11:04pm

Mon Apr 12, 10:04pm

Mon Apr 12, 9:04pm

Mon Apr 12, 8:04pm

Mon Apr 12, 7:05pm

Mon Apr 12, 6:04pm

Mon Apr 12, 5:04pm

Mon Apr 12, 4:04pm

Mon Apr 12, 3:05pm

Mon Apr 12, 2:04pm

Mon Apr 12, 1:05pm

Mon Apr 12, 12:04pm

Mon Apr 12, 11:04am

Mon Apr 12, 10:04am

Mon Apr 12, 9:04am

Mon Apr 12, 8:04am

Mon Apr 12, 7:04am

Mon Apr 12, 6:04am

Mon Apr 12, 5:04am

Mon Apr 12, 4:04am

Mon Apr 12, 3:04am

Mon Apr 12, 2:04am

Mon Apr 12, 1:05am

Mon Apr 12, 12:04am

Sun Apr 11, 11:04pm

Sun Apr 11, 10:04pm

Sun Apr 11, 9:04pm

Sun Apr 11, 8:04pm

Sun Apr 11, 7:04pm

Sun Apr 11, 6:05pm

Sun Apr 11, 5:05pm

Sun Apr 11, 4:04pm

Sun Apr 11, 3:05pm

Sun Apr 11, 2:05pm

Sun Apr 11, 1:05pm

Sun Apr 11, 12:04pm

Sun Apr 11, 11:05am

Sun Apr 11, 10:05am

Sun Apr 11, 9:04am

Sun Apr 11, 8:04am

Sun Apr 11, 7:04am

Sun Apr 11, 6:04am

Sun Apr 11, 5:04am

Sun Apr 11, 4:04am

Sun Apr 11, 3:04am

Sun Apr 11, 2:04am

Sun Apr 11, 1:05am

Sun Apr 11, 12:04am

Sat Apr 10, 11:05pm

Sat Apr 10, 10:04pm

Sat Apr 10, 9:04pm

Sat Apr 10, 8:04pm

Sat Apr 10, 7:05pm

Sat Apr 10, 6:04pm

Sat Apr 10, 5:04pm

Sat Apr 10, 4:04pm

Sat Apr 10, 3:04pm

Sat Apr 10, 2:05pm

Sat Apr 10, 1:04pm

Sat Apr 10, 12:04pm

Sat Apr 10, 11:04am

Sat Apr 10, 10:04am

Sat Apr 10, 9:04am

Sat Apr 10, 8:04am

Sat Apr 10, 7:04am

Sat Apr 10, 6:04am

Sat Apr 10, 5:04am

Sat Apr 10, 4:04am

Sat Apr 10, 3:04am

Sat Apr 10, 2:04am

Sat Apr 10, 1:05am

Sat Apr 10, 12:04am

Fri Apr 9, 11:04pm

Fri Apr 9, 10:05pm

Fri Apr 9, 9:04pm

Fri Apr 9, 8:05pm

Fri Apr 9, 7:05pm

Fri Apr 9, 6:04pm

Fri Apr 9, 5:04pm

Fri Apr 9, 4:05pm

Fri Apr 9, 3:05pm

Fri Apr 9, 2:04pm

Fri Apr 9, 1:04pm

Fri Apr 9, 12:04pm

Fri Apr 9, 11:05am

Meta data:

ID: 04dea176-bda9-42b9-968d-e09427075707
Link: https://api.weather.gov/products/04dea176-bda9-42b9-968d-e09427075707